| time (UTC) | temp C | wind direction | speed KPH | gust KPH | rain 1hr cm | rain 24hr cm | rain mn cm | humidity % | barometer mb |
| 20260507134403 | 10 | 274 | 0.0 | 1.6 | 0.00 | 0.74 | 0.38 | 75 | 1013.0 |
| 20260507133903 | 10 | 274 | 0.0 | 4.8 | 0.00 | 0.74 | 0.38 | 73 | 1013.0 |
| 20260507133403 | 10 | 274 | 0.0 | 4.8 | 0.00 | 0.76 | 0.38 | 74 | 1013.1 |
| 20260507132902 | 10 | 262 | 0.0 | 3.2 | 0.00 | 0.79 | 0.38 | 74 | 1013.1 |
| 20260507132644 | 10 | 261 | 0.0 | 3.2 | 0.00 | 0.81 | 0.38 | 74 | 1013.2 |
| 20260507131901 | 10 | 275 | 0.0 | 3.2 | 0.00 | 0.81 | 0.38 | 76 | 1013.1 |
| 20260507131401 | 10 | 275 | 0.0 | 3.2 | 0.00 | 0.84 | 0.38 | 78 | 1013.2 |
| 20260507130901 | 10 | 338 | 0.0 | 3.2 | 0.00 | 0.84 | 0.38 | 79 | 1013.2 |
| 20260507130357 | 10 | 300 | 0.0 | 3.2 | 0.00 | 0.84 | 0.38 | 79 | 1013.1 |
| 20260507125855 | 10 | 300 | 0.0 | 3.2 | 0.00 | 0.86 | 0.38 | 82 | 1013.2 |
| 20260507125351 | 10 | 300 | 0.0 | 1.6 | 0.00 | 0.86 | 0.38 | 81 | 1013.2 |
| 20260507124851 | 10 | 292 | 0.0 | 0.0 | 0.00 | 0.86 | 0.38 | 83 | 1013.0 |
| 20260507124351 | 10 | 292 | 0.0 | 0.0 | 0.00 | 0.89 | 0.38 | 84 | 1013.1 |
| 20260507123850 | 9 | 292 | 0.0 | 0.0 | 0.00 | 0.89 | 0.38 | 85 | 1013.0 |
| 20260507123352 | 9 | 292 | 0.0 | 0.0 | 0.00 | 0.89 | 0.38 | 86 | 1013.0 |
| 20260507122843 | 9 | 292 | 0.0 | 0.0 | 0.00 | 0.91 | 0.38 | 88 | 1013.0 |
| 20260507122620 | 9 | 292 | 0.0 | 0.0 | 0.00 | 0.94 | 0.38 | 88 | 1013.1 |
| 20260507121840 | 9 | 292 | 0.0 | 0.0 | 0.00 | 0.97 | 0.38 | 89 | 1013.0 |
| 20260507121338 | 9 | 292 | 0.0 | 0.0 | 0.00 | 0.99 | 0.38 | 89 | 1013.0 |
| 20260507120838 | 9 | 292 | 0.0 | 0.0 | 0.00 | 0.99 | 0.38 | 89 | 1012.8 |
| 20260507120614 | 9 | 292 | 0.0 | 0.0 | 0.00 | 1.02 | 0.38 | 90 | 1012.9 |
| 20260507115829 | 9 | 292 | 0.0 | 0.0 | 0.00 | 1.02 | 0.38 | 90 | 1012.9 |
| 20260507115329 | 9 | 292 | 0.0 | 0.0 | 0.00 | 1.04 | 0.38 | 90 | 1012.8 |
| 20260507114830 | 9 | 292 | 0.0 | 0.0 | 0.00 | 1.04 | 0.38 | 90 | 1012.8 |
| 20260507114614 | 9 | 292 | 0.0 | 0.0 | 0.00 | 1.04 | 0.38 | 91 | 1012.8 |
| 20260507113830 | 10 | 292 | 0.0 | 0.0 | 0.00 | 1.04 | 0.38 | 91 | 1012.9 |
| 20260507113329 | 10 | 292 | 0.0 | 0.0 | 0.00 | 1.04 | 0.38 | 91 | 1012.9 |
| 20260507113110 | 10 | 292 | 0.0 | 0.0 | 0.00 | 1.04 | 0.38 | 91 | 1013.0 |
| 20260507112329 | 10 | 292 | 0.0 | 0.0 | 0.00 | 1.04 | 0.38 | 91 | 1012.8 |
| 20260507111829 | 10 | 292 | 0.0 | 0.0 | 0.00 | 1.04 | 0.38 | 92 | 1012.8 |
| 20260507111328 | 10 | 292 | 0.0 | 0.0 | 0.00 | 1.04 | 0.38 | 92 | 1012.9 |
| 20260507110828 | 10 | 292 | 0.0 | 0.0 | 0.00 | 1.04 | 0.38 | 92 | 1012.9 |
| 20260507110329 | 10 | 292 | 0.0 | 0.0 | 0.00 | 1.04 | 0.38 | 92 | 1012.8 |
| 20260507105829 | 10 | 292 | 0.0 | 0.0 | 0.00 | 1.04 | 0.38 | 92 | 1012.8 |
| 20260507105328 | 10 | 292 | 0.0 | 0.0 | 0.00 | 1.04 | 0.38 | 92 | 1012.8 |
| 20260507104828 | 10 | 292 | 0.0 | 0.0 | 0.00 | 1.04 | 0.38 | 92 | 1012.7 |
| 20260507104329 | 10 | 292 | 0.0 | 0.0 | 0.00 | 1.04 | 0.38 | 92 | 1012.4 |
| 20260507103830 | 10 | 292 | 0.0 | 0.0 | 0.00 | 1.04 | 0.38 | 92 | 1012.4 |
| 20260507103328 | 10 | 292 | 0.0 | 0.0 | 0.00 | 1.04 | 0.38 | 92 | 1012.3 |
| 20260507103106 | 10 | 292 | 0.0 | 0.0 | 0.00 | 1.04 | 0.38 | 92 | 1012.3 |
| 20260507102322 | 10 | 292 | 0.0 | 0.0 | 0.00 | 1.04 | 0.38 | 92 | 1012.1 |
| 20260507102059 | 10 | 292 | 0.0 | 0.0 | 0.00 | 1.04 | 0.38 | 92 | 1012.2 |
| 20260507101316 | 10 | 292 | 0.0 | 0.0 | 0.00 | 1.04 | 0.38 | 92 | 1012.0 |
| 20260507101113 | 10 | 292 | 0.0 | 0.0 | 0.00 | 1.04 | 0.38 | 92 | 1012.2 |
| 20260507100314 | 10 | 292 | 0.0 | 0.0 | 0.00 | 1.04 | 0.38 | 92 | 1011.9 |
| 20260507095815 | 10 | 292 | 0.0 | 0.0 | 0.00 | 1.04 | 0.38 | 92 | 1011.9 |
| 20260507095316 | 10 | 292 | 0.0 | 0.0 | 0.00 | 1.04 | 0.38 | 92 | 1011.7 |
| 20260507095058 | 10 | 292 | 0.0 | 0.0 | 0.00 | 1.04 | 0.38 | 92 | 1011.9 |
| 20260507094315 | 10 | 292 | 0.0 | 0.0 | 0.00 | 1.04 | 0.38 | 92 | 1011.8 |
| 20260507093817 | 10 | 292 | 0.0 | 0.0 | 0.00 | 1.04 | 0.38 | 92 | 1011.9 |
| 20260507093309 | 10 | 292 | 0.0 | 0.0 | 0.00 | 1.04 | 0.38 | 92 | 1011.8 |
| 20260507092804 | 10 | 292 | 0.0 | 0.0 | 0.00 | 1.04 | 0.38 | 92 | 1011.8 |
| 20260507092306 | 10 | 292 | 0.0 | 0.0 | 0.00 | 1.04 | 0.38 | 92 | 1011.8 |
| 20260507091803 | 10 | 292 | 0.0 | 0.0 | 0.00 | 1.04 | 0.38 | 92 | 1011.7 |
| 20260507091303 | 10 | 292 | 0.0 | 0.0 | 0.00 | 1.04 | 0.38 | 92 | 1011.7 |
| 20260507091045 | 10 | 292 | 0.0 | 0.0 | 0.00 | 1.04 | 0.38 | 92 | 1012.0 |
| 20260507090304 | 10 | 292 | 0.0 | 0.0 | 0.00 | 1.04 | 0.38 | 92 | 1011.9 |
| 20260507085804 | 10 | 292 | 0.0 | 0.0 | 0.00 | 1.04 | 0.38 | 92 | 1011.7 |
| 20260507085306 | 11 | 292 | 0.0 | 0.0 | 0.00 | 1.04 | 0.38 | 92 | 1011.7 |
| 20260507084804 | 11 | 292 | 0.0 | 0.0 | 0.00 | 1.04 | 0.38 | 92 | 1011.7 |
| 20260507084304 | 11 | 292 | 0.0 | 0.0 | 0.00 | 1.04 | 0.38 | 92 | 1011.6 |
| 20260507083804 | 11 | 292 | 0.0 | 0.0 | 0.00 | 1.04 | 0.38 | 92 | 1011.5 |
| 20260507083305 | 11 | 292 | 0.0 | 0.0 | 0.00 | 1.04 | 0.38 | 92 | 1011.6 |
| 20260507082803 | 11 | 292 | 0.0 | 0.0 | 0.00 | 1.04 | 0.38 | 92 | 1011.4 |
| 20260507082545 | 11 | 292 | 0.0 | 0.0 | 0.00 | 1.04 | 0.38 | 92 | 1011.4 |
| 20260507081806 | 11 | 292 | 0.0 | 0.0 | 0.00 | 1.04 | 0.38 | 92 | 1011.4 |
| 20260507081307 | 11 | 292 | 0.0 | 0.0 | 0.00 | 1.04 | 0.38 | 92 | 1011.0 |
| 20260507080807 | 10 | 292 | 0.0 | 0.0 | 0.00 | 1.04 | 0.38 | 91 | 1010.9 |
| 20260507080306 | 11 | 292 | 0.0 | 0.0 | 0.00 | 1.04 | 0.38 | 91 | 1010.9 |
| 20260507075807 | 11 | 292 | 0.0 | 0.0 | 0.00 | 1.04 | 0.38 | 91 | 1011.0 |
| 20260507075307 | 11 | 292 | 0.0 | 0.0 | 0.00 | 1.04 | 0.38 | 91 | 1011.1 |
| 20260507074806 | 11 | 292 | 0.0 | 0.0 | 0.00 | 1.04 | 0.38 | 91 | 1010.9 |
| 20260507074306 | 11 | 292 | 0.0 | 0.0 | 0.00 | 1.04 | 0.38 | 91 | 1010.9 |
| 20260507074044 | 11 | 292 | 0.0 | 0.0 | 0.03 | 1.04 | 0.38 | 91 | 1010.9 |
| 20260507073305 | 11 | 292 | 0.0 | 0.0 | 0.03 | 1.04 | 0.38 | 91 | 1010.8 |
| 20260507072803 | 11 | 292 | 0.0 | 0.0 | 0.08 | 1.04 | 0.38 | 91 | 1010.8 |
| 20260507072306 | 11 | 292 | 0.0 | 0.0 | 0.10 | 1.04 | 0.38 | 91 | 1010.9 |
| 20260507071804 | 11 | 292 | 0.0 | 0.0 | 0.10 | 1.04 | 0.38 | 90 | 1010.9 |
| 20260507071303 | 11 | 292 | 0.0 | 0.0 | 0.10 | 1.04 | 0.38 | 90 | 1010.8 |
| 20260507070803 | 11 | 292 | 0.0 | 3.2 | 0.10 | 1.04 | 0.38 | 90 | 1010.9 |
| 20260507070302 | 11 | 292 | 0.0 | 3.2 | 0.10 | 1.04 | 0.38 | 91 | 1011.0 |
| 20260507065802 | 11 | 292 | 0.0 | 0.0 | 0.10 | 0.94 | 0.38 | 91 | 1011.0 |
| 20260507065541 | 11 | 292 | 0.0 | 0.0 | 0.10 | 0.94 | 0.38 | 91 | 1011.0 |
| 20260507064803 | 11 | 292 | 0.0 | 0.0 | 0.10 | 0.94 | 0.38 | 91 | 1011.2 |
| 20260507064303 | 11 | 292 | 0.0 | 1.6 | 0.10 | 0.94 | 0.38 | 91 | 1011.4 |
| 20260507063803 | 11 | 292 | 0.0 | 1.6 | 0.08 | 0.94 | 0.36 | 91 | 1011.4 |
| 20260507063303 | 11 | 292 | 0.0 | 0.0 | 0.08 | 0.94 | 0.33 | 91 | 1011.3 |
| 20260507062803 | 12 | 292 | 0.0 | 1.6 | 0.03 | 0.94 | 0.30 | 91 | 1011.2 |
| 20260507062305 | 12 | 292 | 0.0 | 3.2 | 0.00 | 0.94 | 0.28 | 91 | 1011.0 |
| 20260507062045 | 12 | 292 | 0.0 | 3.2 | 0.00 | 0.94 | 0.28 | 91 | 1011.1 |
| 20260507061303 | 12 | 292 | 0.0 | 3.2 | 0.03 | 0.94 | 0.28 | 91 | 1011.3 |
| 20260507060803 | 12 | 292 | 0.0 | 3.2 | 0.03 | 0.94 | 0.28 | 92 | 1011.2 |
| 20260507060302 | 12 | 292 | 0.0 | 0.0 | 0.03 | 0.94 | 0.28 | 91 | 1011.3 |
| 20260507055803 | 12 | 292 | 0.0 | 0.0 | 0.03 | 0.91 | 0.28 | 91 | 1011.4 |
| 20260507055545 | 12 | 292 | 0.0 | 0.0 | 0.03 | 0.91 | 0.28 | 91 | 1011.1 |
| 20260507054803 | 12 | 292 | 0.0 | 0.0 | 0.03 | 0.91 | 0.28 | 91 | 1011.3 |
| 20260507054304 | 12 | 292 | 0.0 | 0.0 | 0.03 | 0.91 | 0.28 | 91 | 1011.2 |
| 20260507053803 | 12 | 292 | 0.0 | 0.0 | 0.03 | 0.91 | 0.28 | 91 | 1011.0 |
| 20260507053303 | 12 | 292 | 0.0 | 0.0 | 0.03 | 0.91 | 0.28 | 90 | 1011.1 |
| 20260507052803 | 12 | 292 | 0.0 | 0.0 | 0.13 | 0.91 | 0.28 | 90 | 1011.2 |
| 20260507052545 | 12 | 292 | 0.0 | 0.0 | 0.15 | 0.91 | 0.28 | 90 | 1011.3 |
| 20260507052047 | 12 | 292 | 0.0 | 0.0 | 0.18 | 0.91 | 0.25 | 90 | 1011.2 |
| 20260507051303 | 12 | 292 | 0.0 | 0.0 | 0.25 | 0.91 | 0.25 | 90 | 1011.3 |
| 20260507050803 | 12 | 292 | 0.0 | 0.0 | 0.25 | 0.91 | 0.25 | 90 | 1011.2 |
| 20260507050302 | 12 | 292 | 0.0 | 3.2 | 0.25 | 0.91 | 0.25 | 90 | 1011.2 |
| 20260507045803 | 12 | 292 | 0.0 | 3.2 | 0.25 | 0.66 | 0.25 | 90 | 1011.0 |
| 20260507045306 | 12 | 292 | 0.0 | 3.2 | 0.28 | 0.66 | 0.25 | 89 | 1010.8 |
| 20260507044805 | 12 | 292 | 0.0 | 4.8 | 0.28 | 0.66 | 0.25 | 89 | 1011.2 |
| 20260507044304 | 12 | 292 | 0.0 | 4.8 | 0.28 | 0.66 | 0.25 | 89 | 1011.4 |
| 20260507043805 | 13 | 292 | 0.0 | 0.0 | 0.33 | 0.66 | 0.25 | 89 | 1011.4 |
| 20260507043600 | 13 | 292 | 0.0 | 3.2 | 0.36 | 0.66 | 0.25 | 89 | 1011.4 |
| 20260507043045 | 13 | 292 | 0.0 | 3.2 | 0.28 | 0.66 | 0.15 | 89 | 1011.5 |
| 20260507042306 | 13 | 292 | 0.0 | 0.0 | 0.25 | 0.66 | 0.13 | 88 | 1011.1 |
| 20260507041804 | 13 | 292 | 0.0 | 3.2 | 0.23 | 0.66 | 0.08 | 88 | 1011.1 |
| 20260507041544 | 13 | 292 | 0.0 | 3.2 | 0.13 | 0.66 | 0.00 | 87 | 1011.1 |
| 20260507040805 | 13 | 292 | 0.0 | 3.2 | 0.13 | 0.66 | 0.00 | 86 | 1011.1 |
| 20260507040301 | 13 | 292 | 0.0 | 3.2 | 0.13 | 0.66 | 0.00 | 86 | 1011.1 |
| 20260507035801 | 13 | 292 | 0.0 | 3.2 | 0.13 | 0.53 | 0.64 | 86 | 1011.1 |
| 20260507035305 | 14 | 292 | 0.0 | 3.2 | 0.10 | 0.53 | 0.64 | 85 | 1011.1 |
| 20260507034802 | 14 | 292 | 0.0 | 3.2 | 0.10 | 0.53 | 0.64 | 85 | 1011.0 |
| 20260507034302 | 14 | 292 | 0.0 | 4.8 | 0.10 | 0.53 | 0.64 | 84 | 1010.9 |
| 20260507033803 | 15 | 292 | 0.0 | 4.8 | 0.05 | 0.53 | 0.58 | 83 | 1010.5 |
| 20260507033305 | 15 | 292 | 1.6 | 3.2 | 0.03 | 0.53 | 0.56 | 81 | 1010.7 |
| 20260507032801 | 15 | 292 | 0.0 | 3.2 | 0.00 | 0.53 | 0.53 | 81 | 1010.8 |
| 20260507032543 | 15 | 292 | 0.0 | 3.2 | 0.00 | 0.53 | 0.53 | 82 | 1010.6 |
| 20260507031801 | 15 | 292 | 0.0 | 3.2 | 0.00 | 0.53 | 0.53 | 82 | 1010.5 |
| 20260507031303 | 15 | 292 | 0.0 | 3.2 | 0.00 | 0.53 | 0.53 | 82 | 1010.6 |
| 20260507031043 | 15 | 292 | 0.0 | 6.4 | 0.00 | 0.53 | 0.53 | 82 | 1010.5 |
| 20260507030302 | 15 | 292 | 0.0 | 6.4 | 0.00 | 0.53 | 0.53 | 82 | 1010.6 |
| 20260507030042 | 15 | 291 | 1.6 | 4.8 | 0.00 | 0.53 | 0.53 | 81 | 1010.5 |
| 20260507025301 | 15 | 291 | 1.6 | 4.8 | 0.00 | 0.53 | 0.53 | 81 | 1010.2 |
| 20260507024802 | 15 | 265 | 0.0 | 3.2 | 0.00 | 0.53 | 0.53 | 82 | 1010.3 |
| 20260507024301 | 15 | 265 | 0.0 | 3.2 | 0.00 | 0.53 | 0.53 | 82 | 1010.1 |
| 20260507023751 | 15 | 265 | 0.0 | 4.8 | 0.00 | 0.53 | 0.53 | 82 | 1010.1 |
| 20260507023250 | 15 | 288 | 0.0 | 8.0 | 0.00 | 0.53 | 0.53 | 84 | 1009.9 |
| 20260507023034 | 15 | 273 | 1.6 | 8.0 | 0.00 | 0.53 | 0.53 | 84 | 1010.1 |
| 20260507022252 | 15 | 15 | 0.0 | 3.2 | 0.00 | 0.53 | 0.53 | 84 | 1010.2 |
| 20260507021751 | 16 | 15 | 0.0 | 3.2 | 0.00 | 0.53 | 0.53 | 84 | 1009.9 |
| 20260507021251 | 16 | 15 | 0.0 | 3.2 | 0.00 | 0.53 | 0.53 | 84 | 1010.2 |
| 20260507020750 | 16 | 15 | 0.0 | 3.2 | 0.00 | 0.53 | 0.53 | 84 | 1009.9 |
| 20260507020251 | 16 | 15 | 0.0 | 3.2 | 0.00 | 0.53 | 0.53 | 84 | 1010.1 |
| 20260507015752 | 16 | 15 | 0.0 | 4.8 | 0.00 | 0.53 | 0.53 | 84 | 1010.2 |
| 20260507015532 | 16 | 15 | 0.0 | 4.8 | 0.00 | 0.53 | 0.53 | 84 | 1010.1 |
| 20260507014740 | 16 | 280 | 0.0 | 3.2 | 0.03 | 0.53 | 0.53 | 84 | 1010.1 |
| 20260507014240 | 16 | 280 | 0.0 | 3.2 | 0.03 | 0.53 | 0.53 | 84 | 1009.9 |
| 20260507013738 | 16 | 280 | 0.0 | 4.8 | 0.03 | 0.53 | 0.53 | 84 | 1009.7 |
| 20260507013238 | 16 | 280 | 0.0 | 4.8 | 0.03 | 0.53 | 0.53 | 84 | 1009.6 |
| 20260507012739 | 16 | 280 | 0.0 | 4.8 | 0.03 | 0.53 | 0.53 | 84 | 1009.7 |
| 20260507012517 | 16 | 280 | 1.6 | 4.8 | 0.03 | 0.53 | 0.53 | 86 | 1009.8 |
| 20260507011733 | 17 | 274 | 1.6 | 3.2 | 0.03 | 0.53 | 0.53 | 86 | 1009.8 |
| 20260507011230 | 17 | 273 | 0.0 | 4.8 | 0.03 | 0.53 | 0.53 | 86 | 1010.2 |
| 20260507011010 | 17 | 274 | 0.0 | 4.8 | 0.03 | 0.53 | 0.53 | 87 | 1010.2 |
| 20260507010229 | 17 | 287 | 0.0 | 3.2 | 0.03 | 0.53 | 0.53 | 87 | 1010.1 |
| 20260507010009 | 17 | 287 | 0.0 | 3.2 | 0.05 | 0.51 | 0.53 | 86 | 1010.2 |
| 20260507005229 | 17 | 287 | 1.6 | 3.2 | 0.05 | 0.51 | 0.53 | 86 | 1009.8 |
| 20260507004729 | 17 | 287 | 0.0 | 3.2 | 0.03 | 0.51 | 0.51 | 86 | 1010.2 |
| 20260507004229 | 17 | 275 | 0.0 | 1.6 | 0.03 | 0.51 | 0.51 | 86 | 1009.8 |
| 20260507003729 | 17 | 287 | 0.0 | 3.2 | 0.03 | 0.51 | 0.51 | 85 | 1009.7 |
| 20260507003229 | 17 | 275 | 0.0 | 3.2 | 0.03 | 0.51 | 0.51 | 85 | 1009.7 |
| 20260507002730 | 17 | 287 | 0.0 | 3.2 | 0.03 | 0.51 | 0.51 | 85 | 1010.2 |
| 20260507002228 | 17 | 287 | 0.0 | 1.6 | 0.03 | 0.51 | 0.51 | 85 | 1009.7 |
| 20260507001728 | 18 | 287 | 0.0 | 3.2 | 0.03 | 0.51 | 0.51 | 84 | 1009.7 |
| 20260507001229 | 18 | 287 | 0.0 | 6.4 | 0.03 | 0.51 | 0.51 | 84 | 1009.6 |
| 20260507000728 | 18 | 287 | 0.0 | 6.4 | 0.03 | 0.51 | 0.51 | 85 | 1009.6 |
| 20260507000229 | 18 | 227 | 1.6 | 3.2 | 0.03 | 0.51 | 0.51 | 85 | 1009.5 |
| 20260506235729 | 18 | 227 | 0.0 | 3.2 | 0.00 | 0.48 | 0.48 | 86 | 1009.4 |
| 20260506235230 | 18 | 227 | 0.0 | 3.2 | 0.00 | 0.48 | 0.48 | 85 | 1009.2 |
| 20260506234729 | 19 | 227 | 0.0 | 0.0 | 0.00 | 0.48 | 0.48 | 85 | 1009.1 |
| 20260506234230 | 19 | 227 | 0.0 | 0.0 | 0.00 | 0.48 | 0.48 | 84 | 1008.9 |
| 20260506233729 | 19 | 227 | 0.0 | 0.0 | 0.00 | 0.48 | 0.48 | 84 | 1008.8 |
| 20260506233513 | 19 | 227 | 0.0 | 0.0 | 0.00 | 0.48 | 0.48 | 83 | 1008.6 |
| 20260506232729 | 19 | 227 | 0.0 | 0.0 | 0.00 | 0.48 | 0.48 | 83 | 1008.6 |
| 20260506232230 | 19 | 227 | 0.0 | 0.0 | 0.00 | 0.48 | 0.48 | 83 | 1008.8 |
| 20260506231729 | 19 | 227 | 0.0 | 3.2 | 0.00 | 0.48 | 0.48 | 82 | 1008.7 |
| 20260506231230 | 19 | 227 | 0.0 | 3.2 | 0.00 | 0.48 | 0.48 | 82 | 1008.7 |
| 20260506230729 | 20 | 227 | 0.0 | 1.6 | 0.00 | 0.48 | 0.48 | 82 | 1008.6 |
| 20260506230228 | 20 | 227 | 0.0 | 0.0 | 0.00 | 0.48 | 0.48 | 82 | 1008.6 |
| 20260506225729 | 20 | 227 | 0.0 | 0.0 | 0.00 | 0.48 | 0.48 | 82 | 1008.6 |
| 20260506225508 | 20 | 227 | 0.0 | 3.2 | 0.00 | 0.48 | 0.48 | 81 | 1008.6 |
| 20260506224730 | 20 | 227 | 0.0 | 3.2 | 0.00 | 0.48 | 0.48 | 81 | 1008.6 |
| 20260506224230 | 20 | 227 | 0.0 | 3.2 | 0.00 | 0.48 | 0.48 | 81 | 1008.7 |
| 20260506223729 | 20 | 227 | 0.0 | 6.4 | 0.00 | 0.48 | 0.48 | 81 | 1008.5 |
| 20260506223230 | 20 | 227 | 0.0 | 6.4 | 0.00 | 0.48 | 0.48 | 81 | 1008.6 |
| 20260506222729 | 20 | 227 | 3.2 | 4.8 | 0.00 | 0.48 | 0.48 | 81 | 1008.4 |
| 20260506222229 | 19 | 227 | 0.0 | 4.8 | 0.00 | 0.48 | 0.48 | 82 | 1008.4 |
| 20260506222013 | 19 | 227 | 0.0 | 0.0 | 0.00 | 0.48 | 0.48 | 83 | 1008.5 |
| 20260506221230 | 19 | 227 | 0.0 | 0.0 | 0.00 | 0.48 | 0.48 | 82 | 1008.6 |
| 20260506221012 | 19 | 227 | 0.0 | 1.6 | 0.00 | 0.48 | 0.48 | 82 | 1008.5 |
| 20260506220228 | 19 | 227 | 0.0 | 1.6 | 0.00 | 0.48 | 0.48 | 82 | 1008.6 |
| 20260506215749 | 19 | 227 | 0.0 | 0.0 | 0.00 | 0.48 | 0.48 | 81 | 1008.7 |
| 20260506214729 | 20 | 227 | 0.0 | 4.8 | 0.00 | 0.48 | 0.48 | 81 | 1008.5 |
| 20260506214229 | 20 | 227 | 0.0 | 6.4 | 0.00 | 0.48 | 0.48 | 81 | 1008.5 |
| 20260506213730 | 20 | 227 | 0.0 | 6.4 | 0.00 | 0.48 | 0.48 | 81 | 1008.5 |
| 20260506213303 | 20 | 227 | 0.0 | 4.8 | 0.00 | 0.48 | 0.48 | 81 | 1008.5 |
| 20260506212231 | 20 | 227 | 0.0 | 3.2 | 0.00 | 0.48 | 0.48 | 81 | 1008.3 |
| 20260506211732 | 20 | 228 | 1.6 | 9.7 | 0.00 | 0.48 | 0.48 | 81 | 1008.2 |
| 20260506211230 | 19 | 228 | 1.6 | 9.7 | 0.00 | 0.48 | 0.48 | 81 | 1008.1 |
| 20260506210729 | 19 | 192 | 3.2 | 6.4 | 0.00 | 0.48 | 0.48 | 80 | 1008.2 |
| 20260506210516 | 20 | 192 | 1.6 | 3.2 | 0.00 | 0.48 | 0.48 | 81 | 1008.2 |
| 20260506205736 | 20 | 192 | 1.6 | 6.4 | 0.00 | 0.48 | 0.48 | 80 | 1008.1 |
| 20260506205228 | 20 | 192 | 3.2 | 6.4 | 0.00 | 0.48 | 0.48 | 80 | 1008.1 |
| 20260506204729 | 20 | 216 | 0.0 | 9.7 | 0.00 | 0.48 | 0.48 | 80 | 1007.9 |
| 20260506204228 | 20 | 216 | 3.2 | 9.7 | 0.00 | 0.48 | 0.48 | 80 | 1007.9 |
| 20260506203729 | 20 | 204 | 3.2 | 8.0 | 0.00 | 0.48 | 0.48 | 80 | 1008.0 |
| 20260506203514 | 20 | 223 | 3.2 | 9.7 | 0.00 | 0.48 | 0.48 | 80 | 1007.9 |
| 20260506202730 | 20 | 242 | 3.2 | 9.7 | 0.00 | 0.48 | 0.48 | 80 | 1008.0 |
| 20260506202230 | 20 | 229 | 1.6 | 6.4 | 0.00 | 0.48 | 0.48 | 81 | 1007.9 |
| 20260506201729 | 19 | 229 | 3.2 | 11.3 | 0.00 | 0.48 | 0.48 | 81 | 1008.1 |
| 20260506201229 | 19 | 240 | 4.8 | 11.3 | 0.00 | 0.48 | 0.48 | 80 | 1008.2 |
| 20260506200730 | 19 | 157 | 4.8 | 11.3 | 0.00 | 0.48 | 0.48 | 80 | 1008.0 |
| 20260506200230 | 20 | 48 | 4.8 | 9.7 | 0.00 | 0.48 | 0.48 | 80 | 1008.2 |
| 20260506195730 | 20 | 221 | 3.2 | 12.9 | 0.00 | 0.48 | 0.48 | 80 | 1008.0 |
| 20260506195514 | 20 | 234 | 3.2 | 12.9 | 0.00 | 0.48 | 0.48 | 80 | 1008.0 |
| 20260506194729 | 19 | 235 | 6.4 | 12.9 | 0.00 | 0.48 | 0.48 | 80 | 1008.0 |
| 20260506194229 | 19 | 224 | 3.2 | 9.7 | 0.00 | 0.48 | 0.48 | 80 | 1008.1 |
| 20260506193728 | 19 | 207 | 1.6 | 9.7 | 0.00 | 0.48 | 0.48 | 81 | 1008.1 |
| 20260506193231 | 19 | 205 | 3.2 | 17.7 | 0.00 | 0.48 | 0.48 | 80 | 1008.3 |
| 20260506192729 | 19 | 205 | 4.8 | 17.7 | 0.00 | 0.48 | 0.48 | 80 | 1008.2 |
| 20260506192230 | 19 | 180 | 3.2 | 6.4 | 0.00 | 0.48 | 0.48 | 81 | 1008.1 |
| 20260506191729 | 19 | 180 | 1.6 | 6.4 | 0.00 | 0.48 | 0.48 | 81 | 1008.1 |
| 20260506191230 | 19 | 180 | 3.2 | 14.5 | 0.00 | 0.48 | 0.48 | 80 | 1008.1 |
| 20260506190729 | 19 | 239 | 6.4 | 14.5 | 0.00 | 0.48 | 0.48 | 81 | 1008.3 |
| 20260506190229 | 19 | 202 | 1.6 | 12.9 | 0.00 | 0.48 | 0.48 | 81 | 1008.2 |
| 20260506185729 | 19 | 191 | 4.8 | 16.1 | 0.00 | 0.48 | 0.48 | 82 | 1008.2 |
| 20260506185229 | 18 | 128 | 8.0 | 16.1 | 0.00 | 0.48 | 0.48 | 82 | 1008.3 |
| 20260506184729 | 18 | 180 | 1.6 | 8.0 | 0.00 | 0.48 | 0.48 | 82 | 1008.2 |
| 20260506184229 | 18 | 180 | 1.6 | 16.1 | 0.00 | 0.48 | 0.48 | 82 | 1008.3 |
| 20260506183728 | 18 | 229 | 8.0 | 16.1 | 0.00 | 0.48 | 0.48 | 82 | 1008.4 |
| 20260506183228 | 18 | 158 | 4.8 | 9.7 | 0.00 | 0.48 | 0.48 | 82 | 1008.5 |
| 20260506182729 | 18 | 166 | 3.2 | 9.7 | 0.00 | 0.48 | 0.48 | 82 | 1008.4 |
| 20260506182231 | 18 | 219 | 1.6 | 9.7 | 0.00 | 0.48 | 0.48 | 84 | 1008.4 |
| 20260506181755 | 18 | 232 | 4.8 | 12.9 | 0.00 | 0.48 | 0.48 | 83 | 1008.4 |
| 20260506181012 | 18 | 217 | 4.8 | 11.3 | 0.00 | 0.48 | 0.48 | 83 | 1008.4 |
| 20260506180231 | 17 | 162 | 1.6 | 12.9 | 0.00 | 0.48 | 0.48 | 84 | 1008.6 |
| 20260506175733 | 17 | 219 | 6.4 | 12.9 | 0.00 | 0.48 | 0.48 | 84 | 1008.7 |
| 20260506175533 | 17 | 190 | 3.2 | 17.7 | 0.00 | 0.48 | 0.48 | 84 | 1008.6 |
| 20260506174730 | 17 | 193 | 8.0 | 19.3 | 0.00 | 0.48 | 0.48 | 84 | 1008.8 |
| 20260506174229 | 17 | 150 | 4.8 | 19.3 | 0.00 | 0.48 | 0.48 | 85 | 1008.7 |
| 20260506173729 | 17 | 213 | 4.8 | 11.3 | 0.00 | 0.48 | 0.48 | 86 | 1008.7 |
| 20260506173229 | 17 | 182 | 3.2 | 9.7 | 0.00 | 0.48 | 0.48 | 85 | 1008.6 |
| 20260506172728 | 17 | 194 | 3.2 | 8.0 | 0.00 | 0.48 | 0.48 | 86 | 1008.6 |
| 20260506172529 | 17 | 213 | 4.8 | 14.5 | 0.00 | 0.48 | 0.48 | 87 | 1008.6 |
| 20260506172016 | 17 | 126 | 4.8 | 14.5 | 0.00 | 0.48 | 0.48 | 86 | 1008.5 |
| 20260506171229 | 17 | 164 | 4.8 | 14.5 | 0.00 | 0.48 | 0.48 | 88 | 1008.6 |
| 20260506170729 | 16 | 130 | 4.8 | 27.4 | 0.00 | 0.48 | 0.48 | 87 | 1008.6 |
| 20260506170230 | 16 | 162 | 3.2 | 27.4 | 0.00 | 0.48 | 0.48 | 88 | 1008.8 |
| 20260506165729 | 16 | 229 | 4.8 | 9.7 | 0.00 | 0.48 | 0.48 | 88 | 1008.7 |
| 20260506165230 | 16 | 161 | 4.8 | 9.7 | 0.00 | 0.48 | 0.48 | 89 | 1008.8 |
| 20260506164730 | 16 | 220 | 3.2 | 12.9 | 0.00 | 0.48 | 0.48 | 89 | 1008.6 |
| 20260506164230 | 16 | 195 | 4.8 | 12.9 | 0.00 | 0.48 | 0.48 | 89 | 1008.7 |
| 20260506163729 | 16 | 229 | 3.2 | 12.9 | 0.00 | 0.48 | 0.48 | 90 | 1008.7 |
| 20260506163229 | 16 | 132 | 4.8 | 14.5 | 0.00 | 0.48 | 0.48 | 90 | 1008.8 |
| 20260506162727 | 16 | 165 | 4.8 | 14.5 | 0.00 | 0.48 | 0.48 | 90 | 1008.9 |
| 20260506162524 | 16 | 207 | 3.2 | 12.9 | 0.00 | 0.48 | 0.48 | 90 | 1008.9 |
| 20260506162013 | 16 | 210 | 4.8 | 12.9 | 0.00 | 0.48 | 0.48 | 90 | 1008.8 |
| 20260506161228 | 16 | 156 | 6.4 | 20.9 | 0.00 | 0.48 | 0.48 | 90 | 1008.8 |
| 20260506160726 | 16 | 183 | 4.8 | 30.6 | 0.00 | 0.48 | 0.48 | 90 | 1008.8 |
| 20260506160510 | 15 | 253 | 8.0 | 30.6 | 0.00 | 0.48 | 0.48 | 90 | 1008.9 |
| 20260506155719 | 15 | 194 | 3.2 | 16.1 | 0.00 | 0.48 | 0.48 | 91 | 1008.9 |
| 20260506155217 | 15 | 215 | 3.2 | 16.1 | 0.00 | 0.48 | 0.48 | 91 | 1009.0 |
| 20260506154953 | 15 | 46 | 4.8 | 12.9 | 0.03 | 0.48 | 0.48 | 91 | 1009.1 |
| 20260506154214 | 15 | 244 | 3.2 | 14.5 | 0.03 | 0.48 | 0.48 | 91 | 1009.0 |
| 20260506153714 | 15 | 190 | 4.8 | 14.5 | 0.05 | 0.48 | 0.48 | 91 | 1008.9 |
| 20260506153452 | 15 | 231 | 3.2 | 9.7 | 0.08 | 0.48 | 0.48 | 92 | 1008.9 |
| 20260506152948 | 15 | 209 | 3.2 | 11.3 | 0.10 | 0.48 | 0.48 | 92 | 1008.8 |
| 20260506152207 | 15 | 194 | 4.8 | 16.1 | 0.13 | 0.48 | 0.48 | 92 | 1008.9 |
| 20260506151941 | 15 | 250 | 4.8 | 16.1 | 0.13 | 0.48 | 0.48 | 92 | 1009.1 |
| 20260506151203 | 15 | 184 | 1.6 | 11.3 | 0.13 | 0.48 | 0.48 | 92 | 1009.1 |
| 20260506150703 | 15 | 238 | 3.2 | 11.3 | 0.13 | 0.48 | 0.48 | 92 | 1009.3 |
| 20260506150223 | 15 | 223 | 3.2 | 11.3 | 0.15 | 0.48 | 0.48 | 92 | 1009.1 |
| 20260506145203 | 15 | 176 | 4.8 | 9.7 | 0.18 | 0.33 | 0.48 | 92 | 1009.4 |
| 20260506144703 | 15 | 203 | 3.2 | 12.9 | 0.15 | 0.33 | 0.46 | 92 | 1009.6 |
| 20260506144203 | 15 | 179 | 3.2 | 12.9 | 0.15 | 0.33 | 0.46 | 91 | 1009.7 |
| 20260506143703 | 15 | 190 | 3.2 | 9.7 | 0.13 | 0.33 | 0.43 | 91 | 1009.8 |
| 20260506143204 | 15 | 155 | 4.8 | 24.1 | 0.13 | 0.33 | 0.41 | 91 | 1009.8 |
| 20260506142703 | 15 | 140 | 4.8 | 24.1 | 0.13 | 0.33 | 0.36 | 91 | 1009.7 |
| 20260506142204 | 15 | 216 | 3.2 | 9.7 | 0.13 | 0.33 | 0.36 | 91 | 1009.8 |
| 20260506141703 | 15 | 171 | 3.2 | 17.7 | 0.13 | 0.33 | 0.36 | 91 | 1009.6 |
| 20260506141203 | 15 | 171 | 3.2 | 17.7 | 0.15 | 0.33 | 0.36 | 91 | 1009.5 |
| 20260506140702 | 15 | 236 | 4.8 | 17.7 | 0.15 | 0.33 | 0.36 | 91 | 1009.5 |
| 20260506140446 | 15 | 223 | 4.8 | 17.7 | 0.13 | 0.33 | 0.33 | 91 | 1009.7 |
| 20260506135703 | 15 | 215 | 3.2 | 14.5 | 0.15 | 0.18 | 0.33 | 91 | 1009.5 |
| 20260506135204 | 15 | 244 | 3.2 | 14.5 | 0.13 | 0.18 | 0.30 | 91 | 1009.5 |
| 20260506134948 | 15 | 261 | 1.6 | 14.5 | 0.13 | 0.18 | 0.30 | 91 | 1009.6 |